Temp
-13 -12 -11 -11 -11 -11 -11 -11 -11 -11 -10 -10 -10 -10 -10 -10 -10 -11 -11 -11 -11 -11 -10 -10 -10 -10 -10 -9 -9 -8 -8 -8 -8 -8 -8 -8 -7 -7 -6 -5 -4 -5 -5 -6 -6 -6 -4 -3 -2 -2 -1 -1 -2 -1
-11 -11 -11 -11 -11 -11 -11 -11 -11 -11 -11 -10 -10 -10 -10 -10 -10 -10 -11 -11 -11 -10 -10 -10 -10 -10 -10 -10 -9 -9 -9 -8 -8 -8 -8 -8 -7 -7 -6 -6 -4 -5 -4 -4 -4 -3 -4 -4 -3 -2 -3 -3 -2 -2
-10 -10 -11 -11 -11 -11 -11 -11 -11 -11 -11 -11 -10 -10 -10 -10 -10 -10 -10 -10 -11 -11 -10 -10 -10 -9 -9 -9 -9 -9 -9 -8 -7 -8 -8 -8 -7 -6 -6 -6 -5 -4 -4 -4 -4 -4 -3 -3 -2 -3 -3 -2 -2 -1
-10 -10 -10 -10 -10 -10 -10 -10 -10 -10 -10 -11 -11 -11 -11 -10 -10 -10 -10 -10 -10 -10 -10 -10 -9 -9 -8 -9 -9 -9 -9 -8 -8 -7 -7 -7 -7 -7 -6 -6 -5 -5 -4 -4 -4 -3 -3 -3 -3 -3 -2 -3 -2 -1
-10 -10 -10 -9 -10 -10 -10 -10 -9 -10 -9 -10 -10 -10 -10 -10 -10 -10 -10 -10 -9 -9 -9 -9 -8 -8 -9 -9 -9 -8 -9 -8 -8 -8 -7 -7 -6 -6 -6 -6 -5 -5 -5 -5 -4 -4 -4 -3 -3 -3 -3 -3 -2 -0
-9 -9 -9 -9 -10 -10 -10 -10 -9 -9 -9 -9 -9 -9 -10 -9 -10 -10 -10 -10 -10 -9 -9 -9 -8 -8 -8 -8 -8 -9 -9 -8 -8 -8 -7 -8 -7 -7 -7 -6 -5 -5 -5 -4 -4 -4 -4 -4 -4 -3 -3 -3 -1 -0
-9 -9 -9 -9 -9 -9 -9 -10 -10 -10 -9 -9 -10 -10 -10 -10 -10 -10 -10 -9 -9 -9 -9 -9 -9 -8 -8 -8 -8 -8 -8 -8 -8 -8 -8 -7 -7 -7 -7 -6 -6 -5 -5 -4 -3 -4 -3 -3 -4 -3 -3 -3 -2 -2
-9 -9 -9 -9 -9 -9 -9 -9 -9 -10 -10 -10 -10 -10 -10 -10 -10 -10 -10 -9 -10 -9 -9 -9 -8 -8 -7 -7 -8 -8 -9 -8 -8 -8 -8 -7 -6 -7 -7 -7 -5 -4 -4 -4 -3 -4 -4 -3 -3 -3 -3 -3 -2 -2
-9 -9 -9 -9 -8 -9 -9 -9 -9 -10 -10 -10 -9 -9 -10 -10 -10 -9 -9 -10 -10 -9 -10 -9 -8 -7 -7 -8 -9 -8 -8 -8 -8 -7 -7 -7 -7 -7 -6 -6 -5 -4 -4 -4 -4 -4 -4 -3 -3 -3 -3 -3 -2 -2
-9 -9 -9 -8 -9 -9 -9 -9 -10 -9 -10 -10 -10 -10 -9 -10 -9 -9 -10 -10 -10 -10 -10 -9 -8 -7 -8 -8 -8 -8 -8 -8 -7 -7 -7 -7 -7 -6 -6 -5 -5 -4 -4 -4 -4 -4 -4 -3 -3 -3 -3 -3 -3 -2
-9 -9 -10 -9 -9 -9 -9 -9 -10 -9 -10 -10 -9 -9 -9 -9 -9 -10 -9 -9 -10 -9 -9 -9 -8 -8 -8 -8 -8 -8 -7 -8 -7 -7 -7 -7 -7 -6 -5 -4 -4 -4 -3 -3 -3 -3 -4 -4 -3 -3 -2 -2 -3 -3
-9 -9 -9 -9 -9 -9 -9 -9 -9 -9 -10 -9 -8 -9 -9 -9 -9 -9 -9 -9 -8 -9 -9 -9 -9 -8 -7 -7 -8 -8 -7 -7 -6 -7 -7 -6 -6 -5 -5 -5 -4 -4 -4 -4 -4 -4 -4 -4 -4 -3 -3 -3 -3 -2
-9 -9 -9 -9 -9 -9 -9 -9 -10 -9 -9 -9 -9 -9 -9 -9 -9 -8 -8 -8 -8 -9 -8 -8 -9 -8 -8 -8 -8 -7 -7 -7 -7 -8 -8 -7 -6 -5 -5 -5 -5 -5 -4 -4 -4 -4 -5 -5 -4 -4 -4 -4 -3 -3
-9 -9 -9 -9 -9 -9 -9 -9 -9 -9 -9 -9 -9 -8 -9 -8 -8 -9 -8 -7 -8 -9 -8 -8 -8 -8 -8 -8 -8 -7 -7 -8 -8 -7 -7 -7 -6 -5 -6 -6 -5 -6 -5 -6 -6 -6 -6 -5 -5 -5 -4 -4 -4 -4
-9 -9 -9 -9 -9 -9 -9 -9 -9 -9 -8 -8 -8 -8 -9 -9 -9 -8 -8 -7 -7 -7 -8 -9 -8 -8 -8 -8 -8 -8 -8 -8 -8 -8 -8 -7 -7 -7 -6 -6 -7 -8 -8 -7 -7 -7 -6 -6 -5 -5 -5 -5 -4 -4
-9 -9 -9 -9 -9 -8 -8 -9 -8 -8 -7 -8 -9 -11 -10 -10 -10 -10 -9 -7 -7 -8 -8 -8 -8 -8 -8 -8 -8 -8 -8 -9 -10 -9 -9 -8 -8 -8 -7 -7 -8 -8 -7 -7 -7 -6 -6 -6 -6 -6 -6 -6 -7 -7
-9 -9 -8 -8 -7 -8 -7 -7 -8 -8 -9 -10 -11 -10 -10 -10 -10 -9 -9 -10 -9 -8 -8 -8 -8 -8 -8 -8 -9 -9 -10 -11 -11 -11 -10 -9 -9 -9 -9 -9 -9 -8 -8 -7 -7 -7 -7 -6 -6 -7 -9 -9 -9 -10
-9 -8 -8 -8 -8 -8 -7 -7 -7 -9 -10 -11 -10 -9 -9 -9 -9 -9 -9 -9 -9 -8 -8 -8 -8 -8 -9 -10 -11 -11 -12 -13 -12 -12 -12 -12 -11 -11 -11 -11 -10 -9 -9 -9 -9 -9 -8 -8 -9 -9 -10 -10 -11 -11
-8 -8 -8 -7 -7 -7 -8 -9 -8 -10 -11 -10 -10 -10 -9 -9 -9 -9 -9 -9 -9 -8 -8 -8 -8 -9 -10 -12 -13 -13 -13 -13 -13 -13 -13 -13 -12 -12 -12 -12 -11 -11 -11 -11 -11 -11 -11 -11 -11 -11 -12 -12 -12 -12
-8 -8 -7 -7 -7 -7 -7 -9 -9 -10 -11 -11 -11 -10 -9 -9 -9 -9 -9 -9 -9 -9 -9 -9 -11 -13 -14 -14 -14 -14 -14 -14 -14 -14 -14 -13 -13 -13 -13 -13 -13 -12 -12 -13 -13 -13 -13 -13 -13 -13 -13 -13 -13 -13
-7 -7 -7 -7 -8 -8 -8 -9 -10 -11 -12 -12 -11 -10 -10 -10 -10 -9 -9 -9 -9 -9 -11 -12 -14 -14 -14 -14 -14 -14 -14 -14 -14 -14 -14 -14 -13 -14 -14 -14 -14 -14 -14 -14 -14 -14 -14 -13 -13 -13 -14 -13 -13 -13
-8 -8 -8 -8 -8 -8 -10 -10 -10 -11 -12 -12 -12 -11 -12 -12 -11 -10 -11 -9 -11 -13 -14 -15 -15 -15 -15 -15 -15 -15 -15 -15 -14 -14 -14 -14 -14 -14 -14 -14 -14 -14 -15 -14 -14 -14 -14 -13 -13 -14 -13 -14 -15 -16
-9 -9 -8 -8 -9 -11 -12 -12 -11 -12 -13 -13 -12 -12 -12 -12 -12 -12 -12 -14 -15 -15 -16 -16 -16 -16 -16 -15 -15 -15 -15 -15 -15 -15 -15 -15 -15 -15 -15 -15 -15 -15 -15 -14 -14 -14 -14 -14 -14 -14 -15 -16 -16 -15
-9 -8 -8 -9 -10 -11 -12 -12 -12 -12 -12 -12 -12 -13 -13 -13 -14 -14 -15 -16 -16 -16 -16 -16 -16 -16 -16 -16 -16 -16 -16 -16 -16 -16 -16 -16 -16 -16 -15 -15 -15 -15 -15 -15 -15 -15 -14 -14 -15 -16 -17 -16 -15 -15
-7 -8 -9 -10 -10 -11 -11 -11 -11 -11 -12 -12 -12 -13 -13 -13 -14 -16 -16 -16 -16 -16 -16 -16 -16 -16 -16 -17 -17 -17 -16 -16 -16 -16 -16 -16 -16 -16 -16 -16 -16 -16 -16 -15 -15 -15 -15 -16 -17 -17 -17 -17 -16 -16
-6 -7 -8 -9 -9 -9 -10 -11 -11 -11 -11 -11 -12 -13 -13 -14 -15 -16 -16 -17 -17 -17 -17 -17 -17 -17 -17 -17 -17 -17 -17 -17 -17 -17 -17 -17 -17 -17 -17 -17 -16 -16 -16 -16 -16 -16 -16 -17 -17 -18 -17 -17 -17 -17
-7 -8 -8 -8 -8 -9 -10 -10 -10 -10 -10 -12 -12 -12 -13 -13 -14 -16 -16 -17 -17 -17 -17 -18 -17 -18 -18 -18 -18 -18 -18 -18 -17 -18 -18 -18 -17 -17 -17 -17 -17 -17 -17 -17 -17 -17 -18 -18 -18 -17 -17 -17 -18 -18
-8 -9 -8 -9 -9 -9 -9 -10 -10 -11 -11 -11 -11 -11 -12 -13 -14 -16 -16 -17 -18 -18 -18 -18 -18 -18 -18 -18 -18 -18 -18 -18 -18 -18 -18 -18 -18 -18 -18 -18 -18 -18 -18 -18 -19 -18 -18 -18 -18 -18 -18 -18 -19 -19
-9 -9 -10 -10 -10 -10 -11 -11 -12 -12 -12 -12 -12 -13 -14 -14 -15 -16 -17 -18 -18 -18 -19 -19 -19 -19 -19 -19 -19 -19 -19 -19 -19 -19 -19 -19 -19 -18 -18 -19 -19 -19 -19 -19 -19 -18 -19 -19 -19 -19 -19 -19 -20 -20
-10 -10 -10 -10 -10 -11 -12 -13 -13 -13 -13 -13 -13 -14 -14 -15 -16 -17 -18 -18 -19 -19 -20 -20 -20 -20 -20 -20 -20 -20 -20 -20 -19 -19 -19 -20 -20 -20 -20 -19 -19 -19 -19 -19 -19 -19 -19 -19 -20 -20 -20 -20 -21 -21
-10 -11 -11 -10 -11 -13 -13 -13 -13 -13 -14 -14 -15 -15 -16 -16 -17 -18 -18 -19 -19 -20 -20 -20 -20 -20 -20 -20 -20 -20 -20 -20 -20 -20 -20 -20 -20 -20 -20 -20 -20 -20 -20 -20 -20 -20 -20 -20 -20 -21 -21 -21 -21 -21
-11 -11 -11 -11 -12 -13 -13 -13 -14 -14 -15 -15 -15 -16 -16 -17 -18 -18 -19 -19 -20 -20 -21 -21 -21 -21 -21 -21 -21 -21 -21 -21 -21 -21 -20 -20 -20 -20 -20 -20 -20 -20 -20 -21 -21 -21 -21 -21 -21 -21 -21 -21 -21 -22
-12 -12 -12 -12 -12 -13 -13 -13 -14 -14 -15 -15 -16 -17 -17 -18 -18 -19 -19 -19 -20 -21 -21 -21 -21 -21 -22 -22 -22 -22 -22 -21 -21 -21 -21 -21 -21 -21 -21 -21 -21 -21 -21 -21 -21 -21 -21 -21 -22 -22 -22 -22 -22 -22
Height
2850 2849 2850 2851 2852 2854 2856 2858 2860 2863 2866 2869 2874 2878 2883 2889 2896 2904 2911 2917 2921 2924 2930 2936 2942 2946 2952 2955 2959 2964 2968 2968 2971 2973 2977 2978 2981 2982 2982 2983 2984 2985 2986 2986 2987 2988 2983 2980 2978 2979 2976 2971 2969 2969
2840 2840 2841 2841 2843 2845 2846 2848 2850 2853 2857 2862 2866 2871 2877 2883 2890 2896 2902 2910 2919 2923 2924 2930 2937 2940 2943 2949 2955 2956 2960 2963 2964 2966 2969 2972 2974 2975 2977 2978 2979 2980 2978 2979 2980 2977 2970 2975 2974 2972 2970 2968 2966 2962
2832 2831 2831 2831 2832 2833 2835 2837 2839 2843 2847 2853 2858 2864 2869 2876 2883 2890 2896 2904 2913 2917 2920 2922 2926 2933 2935 2938 2945 2949 2952 2957 2960 2962 2964 2966 2967 2969 2970 2970 2973 2972 2973 2971 2973 2971 2972 2971 2970 2969 2968 2964 2961 2960
2823 2821 2820 2820 2820 2822 2823 2826 2829 2833 2838 2844 2850 2856 2862 2869 2877 2885 2890 2897 2906 2911 2913 2912 2920 2923 2933 2934 2937 2942 2948 2951 2955 2959 2958 2960 2961 2963 2964 2966 2966 2967 2967 2965 2964 2964 2965 2965 2966 2964 2963 2962 2958 2956
2814 2812 2810 2810 2811 2812 2814 2816 2820 2824 2830 2837 2844 2850 2857 2864 2872 2880 2887 2893 2898 2909 2908 2911 2915 2921 2924 2928 2933 2937 2941 2947 2950 2953 2954 2955 2957 2959 2959 2959 2959 2961 2961 2962 2958 2961 2961 2959 2962 2961 2959 2957 2956 2955
2807 2804 2802 2801 2802 2803 2805 2807 2810 2816 2822 2829 2837 2845 2852 2860 2869 2876 2881 2886 2894 2900 2907 2909 2907 2910 2918 2922 2925 2930 2936 2942 2945 2946 2948 2949 2954 2955 2953 2951 2954 2957 2958 2958 2954 2956 2956 2955 2957 2957 2958 2956 2954 2952
2802 2798 2795 2794 2793 2794 2795 2799 2803 2808 2815 2822 2831 2839 2848 2856 2864 2869 2875 2882 2892 2899 2905 2908 2907 2909 2913 2917 2921 2925 2932 2936 2939 2941 2942 2945 2949 2950 2946 2944 2949 2952 2952 2953 2952 2951 2950 2951 2949 2950 2951 2950 2949 2948
2800 2796 2791 2787 2784 2783 2784 2788 2793 2801 2810 2819 2828 2837 2845 2855 2864 2869 2877 2882 2889 2896 2900 2903 2905 2908 2908 2910 2916 2921 2926 2932 2933 2935 2937 2939 2943 2941 2937 2938 2944 2947 2947 2946 2947 2947 2946 2945 2945 2943 2946 2945 2945 2945
2801 2795 2790 2784 2781 2778 2776 2778 2785 2795 2805 2816 2827 2836 2845 2852 2858 2867 2876 2883 2889 2896 2895 2900 2902 2906 2907 2908 2913 2918 2922 2927 2929 2928 2931 2936 2932 2929 2933 2936 2938 2941 2940 2939 2939 2940 2941 2941 2940 2938 2939 2940 2941 2941
2802 2797 2790 2786 2781 2776 2771 2769 2777 2789 2804 2816 2825 2832 2842 2850 2857 2869 2878 2882 2886 2889 2891 2895 2900 2904 2905 2906 2911 2917 2919 2923 2924 2924 2926 2925 2921 2925 2928 2930 2931 2933 2933 2931 2930 2932 2932 2932 2931 2931 2932 2935 2936 2936
2805 2802 2796 2791 2786 2780 2773 2769 2778 2788 2802 2815 2824 2833 2842 2852 2862 2870 2875 2879 2882 2885 2886 2890 2895 2898 2902 2905 2909 2914 2914 2917 2918 2919 2920 2917 2915 2918 2920 2921 2923 2924 2923 2923 2922 2922 2922 2922 2923 2925 2926 2927 2929 2930
2811 2809 2804 2801 2798 2795 2791 2791 2794 2802 2811 2817 2823 2838 2846 2856 2862 2866 2870 2875 2877 2879 2879 2884 2891 2897 2898 2903 2908 2912 2912 2912 2913 2913 2915 2910 2908 2911 2913 2914 2915 2915 2914 2913 2913 2912 2913 2913 2914 2916 2918 2921 2923 2925
2819 2817 2814 2811 2810 2809 2809 2810 2814 2821 2826 2831 2838 2845 2851 2855 2857 2862 2863 2868 2871 2872 2875 2880 2888 2894 2899 2903 2905 2908 2907 2907 2908 2909 2908 2904 2905 2906 2907 2907 2907 2906 2905 2904 2903 2903 2903 2906 2907 2909 2911 2914 2917 2919
2823 2823 2822 2822 2821 2820 2821 2822 2825 2830 2835 2838 2841 2846 2848 2850 2854 2856 2861 2867 2871 2871 2874 2880 2887 2893 2897 2901 2902 2901 2903 2904 2904 2904 2901 2901 2901 2900 2899 2899 2898 2898 2897 2896 2895 2896 2897 2898 2901 2904 2905 2907 2910 2911
2829 2828 2828 2829 2828 2828 2829 2832 2834 2837 2840 2842 2844 2846 2848 2850 2853 2857 2862 2867 2871 2874 2876 2881 2887 2891 2893 2896 2897 2898 2900 2900 2898 2896 2896 2895 2895 2894 2894 2894 2893 2892 2892 2891 2891 2891 2892 2894 2895 2896 2898 2899 2901 2904
2834 2835 2834 2834 2835 2835 2835 2837 2841 2842 2842 2843 2844 2847 2849 2853 2856 2859 2861 2865 2869 2874 2879 2882 2885 2888 2889 2892 2893 2894 2896 2894 2894 2893 2893 2892 2891 2890 2889 2888 2887 2886 2886 2887 2887 2887 2887 2888 2889 2890 2891 2892 2893 2896
2839 2839 2839 2839 2839 2838 2838 2839 2840 2842 2843 2846 2850 2852 2854 2857 2859 2861 2863 2866 2870 2874 2876 2880 2883 2885 2887 2888 2890 2891 2891 2891 2890 2889 2889 2887 2886 2884 2883 2882 2881 2882 2882 2882 2883 2883 2883 2885 2886 2886 2888 2890 2893 2894
2841 2842 2842 2842 2842 2841 2839 2841 2842 2845 2847 2851 2854 2856 2858 2860 2862 2864 2865 2869 2872 2875 2877 2880 2882 2883 2884 2885 2887 2888 2888 2888 2887 2886 2884 2883 2881 2880 2879 2878 2877 2878 2879 2880 2880 2881 2882 2884 2886 2888 2891 2893 2896 2900
2843 2844 2844 2844 2845 2844 2842 2842 2843 2848 2853 2856 2858 2860 2861 2862 2863 2865 2868 2870 2873 2875 2879 2880 2881 2881 2882 2883 2885 2886 2886 2886 2885 2883 2882 2881 2879 2878 2877 2876 2876 2877 2877 2879 2880 2882 2884 2887 2890 2892 2895 2898 2901 2903
2844 2845 2845 2845 2845 2845 2845 2849 2851 2853 2857 2860 2861 2863 2863 2864 2865 2866 2868 2871 2873 2875 2878 2879 2879 2881 2882 2883 2884 2884 2885 2884 2883 2882 2881 2880 2879 2878 2877 2878 2878 2879 2881 2882 2884 2887 2889 2891 2894 2896 2899 2901 2903 2905
2844 2844 2844 2844 2843 2845 2847 2850 2853 2858 2860 2862 2864 2865 2865 2867 2868 2868 2870 2871 2873 2873 2875 2878 2881 2882 2883 2884 2884 2884 2884 2884 2883 2883 2882 2881 2880 2880 2880 2881 2882 2884 2886 2888 2890 2892 2895 2896 2898 2899 2901 2903 2904 2905
2842 2843 2843 2843 2844 2846 2850 2853 2856 2858 2862 2864 2866 2867 2868 2870 2870 2871 2871 2873 2872 2875 2878 2880 2882 2883 2884 2884 2885 2885 2884 2884 2883 2883 2883 2883 2883 2884 2885 2886 2888 2890 2891 2893 2895 2897 2898 2899 2900 2902 2903 2903 2904 2905
2844 2845 2846 2845 2847 2852 2858 2858 2860 2861 2864 2867 2869 2869 2871 2871 2871 2873 2873 2875 2877 2880 2882 2883 2884 2885 2885 2885 2885 2885 2884 2884 2884 2884 2884 2884 2886 2887 2888 2890 2891 2893 2895 2896 2897 2898 2899 2900 2901 2901 2901 2903 2904 2905
2848 2848 2848 2850 2852 2856 2860 2861 2862 2863 2866 2868 2869 2871 2873 2873 2875 2875 2877 2879 2881 2883 2884 2884 2885 2885 2885 2885 2885 2884 2884 2885 2885 2885 2886 2887 2888 2890 2891 2892 2893 2894 2896 2897 2898 2898 2899 2899 2899 2900 2901 2903 2903 2904
2854 2855 2858 2858 2860 2862 2863 2865 2867 2868 2870 2872 2873 2874 2877 2878 2879 2880 2882 2884 2884 2885 2885 2886 2886 2885 2885 2885 2885 2885 2885 2885 2885 2886 2887 2888 2889 2891 2892 2893 2895 2896 2897 2897 2897 2898 2897 2897 2898 2899 2900 2901 2902 2901
2856 2860 2863 2864 2866 2868 2869 2871 2872 2874 2875 2875 2877 2879 2880 2881 2882 2886 2887 2887 2887 2887 2888 2887 2887 2887 2886 2886 2886 2886 2886 2886 2886 2887 2888 2889 2890 2891 2892 2894 2895 2895 2896 2896 2896 2896 2896 2897 2897 2898 2899 2899 2898 2898
2862 2865 2867 2868 2870 2872 2873 2875 2876 2877 2878 2880 2881 2881 2882 2884 2886 2889 2889 2889 2889 2889 2889 2889 2889 2888 2888 2888 2888 2888 2888 2888 2889 2889 2890 2890 2891 2891 2892 2893 2893 2894 2894 2894 2894 2894 2895 2895 2896 2896 2896 2895 2895 2894
2867 2870 2873 2875 2875 2877 2878 2879 2880 2882 2883 2884 2885 2885 2886 2887 2890 2890 2890 2890 2891 2891 2891 2891 2890 2890 2890 2890 2890 2890 2890 2890 2890 2890 2890 2891 2891 2891 2892 2892 2892 2892 2892 2892 2893 2893 2894 2894 2893 2893 2893 2892 2892 2891
2872 2874 2878 2879 2880 2881 2883 2884 2886 2888 2889 2889 2889 2889 2889 2890 2890 2891 2891 2891 2892 2892 2892 2891 2891 2891 2891 2890 2890 2890 2890 2890 2890 2890 2890 2890 2890 2891 2890 2890 2890 2890 2891 2891 2891 2891 2891 2891 2890 2890 2890 2889 2889 2888
2878 2880 2882 2883 2884 2885 2889 2890 2892 2893 2893 2893 2893 2892 2893 2892 2892 2892 2892 2892 2892 2892 2892 2891 2891 2891 2891 2891 2890 2890 2890 2889 2889 2890 2889 2889 2889 2889 2889 2889 2889 2889 2889 2889 2889 2889 2888 2888 2887 2887 2886 2886 2885 2884
2881 2884 2886 2886 2887 2891 2893 2894 2895 2896 2896 2896 2895 2896 2895 2894 2894 2893 2893 2892 2892 2891 2891 2891 2890 2890 2890 2890 2889 2889 2889 2889 2889 2889 2888 2888 2888 2888 2888 2887 2887 2887 2886 2886 2886 2885 2885 2884 2884 2883 2882 2882 2881 2881
2886 2888 2890 2889 2892 2895 2896 2897 2898 2899 2899 2899 2898 2898 2897 2896 2896 2895 2894 2893 2892 2891 2890 2890 2889 2889 2889 2888 2888 2888 2888 2888 2887 2887 2887 2886 2886 2885 2885 2884 2884 2884 2883 2883 2882 2882 2881 2881 2880 2880 2879 2879 2878 2877
2889 2891 2893 2894 2895 2897 2899 2900 2900 2901 2901 2901 2900 2899 2898 2897 2896 2895 2893 2892 2891 2890 2889 2889 2888 2888 2887 2887 2887 2887 2887 2886 2886 2885 2885 2884 2883 2882 2882 2881 2881 2880 2880 2880 2879 2879 2878 2878 2877 2876 2876 2875 2874 2873
Wind_Speed
36 30 26 25 26 25 26 27 26 28 28 30 29 28 29 34 37 52 46 43 44 44 40 35 24 28 28 33 35 24 19 24 19 25 24 14 15 14 16 15 5 9 10 17 24 14 13 10 15 12 14 21 15 7
25 25 26 27 28 28 30 28 29 30 31 31 30 30 29 28 36 39 55 45 47 48 48 40 43 42 41 35 30 28 29 19 14 16 19 16 15 12 21 14 21 23 27 10 12 8 12 14 21 17 19 17 18 16
25 27 29 29 29 30 30 31 29 30 31 33 31 31 30 32 33 38 44 48 49 52 49 50 44 18 25 31 32 28 30 25 18 20 11 16 11 18 20 25 22 23 20 26 21 24 29 24 19 20 21 18 21 16
28 26 25 25 24 25 24 25 26 25 28 29 30 30 30 29 31 34 34 39 41 41 48 39 26 43 31 20 30 28 23 18 24 21 16 11 16 18 19 20 16 18 15 20 24 25 21 18 23 17 15 16 18 15
21 21 22 23 22 22 24 25 26 26 27 28 29 30 31 28 29 29 32 30 23 37 10 28 35 28 21 30 26 18 24 27 21 20 18 18 17 20 20 21 24 20 21 24 26 25 21 20 17 17 22 16 16 12
16 15 16 16 16 18 18 17 20 28 28 28 28 28 29 30 30 31 31 36 30 30 29 7 3 21 29 25 26 31 25 22 26 29 28 27 23 20 14 18 20 20 18 19 24 19 22 22 23 22 21 20 16 11
15 15 14 14 17 20 21 23 22 21 20 23 27 29 30 31 34 37 31 35 36 27 34 25 5 2 21 26 25 27 29 27 29 34 34 32 28 23 25 27 24 20 20 23 16 17 21 15 21 20 19 17 17 9
12 12 12 12 12 14 19 23 24 27 29 26 26 23 27 29 30 36 33 25 30 33 22 6 10 14 9 26 36 30 32 30 35 34 36 33 29 31 25 27 27 20 21 19 21 22 21 21 22 20 16 15 16 15
19 17 14 10 7 2 6 16 24 29 29 29 29 30 27 33 36 37 21 25 20 31 32 10 10 10 14 21 28 30 35 31 27 28 31 26 31 22 19 17 17 20 21 17 16 18 19 20 19 18 17 17 17 18
20 16 18 19 19 14 5 14 24 34 37 33 33 40 35 38 34 32 29 20 20 18 28 28 25 24 14 22 26 21 24 20 12 27 26 31 37 32 32 34 34 32 26 27 27 26 26 22 23 20 20 19 18 19
13 29 21 26 23 22 18 25 33 37 46 40 34 36 29 35 36 27 14 16 14 13 22 31 20 27 28 24 26 23 8 16 11 15 13 12 25 30 31 31 29 27 29 28 30 31 31 27 26 24 25 22 20 14
18 30 21 25 24 26 29 30 38 43 46 41 42 44 39 29 14 8 14 13 8 13 11 33 30 20 20 27 19 22 9 14 7 9 10 9 21 23 24 25 26 28 29 29 29 30 28 26 24 26 24 26 22 17
18 24 23 24 26 25 28 30 34 34 35 30 39 25 21 7 6 9 14 11 7 12 18 24 31 25 18 20 11 9 7 7 7 8 6 13 16 18 20 21 22 24 25 26 27 26 25 22 23 24 22 26 23 20
17 21 23 25 24 20 22 26 32 37 30 28 11 10 4 7 7 8 18 18 7 16 19 23 30 22 21 13 10 7 8 7 7 7 10 17 18 22 23 23 24 23 21 19 18 19 19 21 23 24 22 27 25 27
11 10 18 21 14 17 21 27 30 22 17 10 7 5 5 7 12 15 17 18 14 12 16 24 25 14 20 8 8 4 5 5 6 8 12 15 18 20 21 24 26 23 16 14 13 12 13 17 18 24 28 28 29 28
14 15 19 22 19 14 13 14 19 19 10 3 4 16 19 16 16 18 18 19 21 23 26 25 12 8 5 6 6 6 5 6 7 10 11 13 17 19 19 19 18 17 15 13 13 12 12 7 10 18 23 28 27 26
17 16 15 14 13 13 8 9 6 5 6 9 14 17 17 16 15 14 13 17 27 28 26 10 7 7 6 6 6 6 5 6 8 10 13 16 18 17 16 15 15 14 11 10 10 10 8 7 7 11 14 20 21 20
10 12 11 12 13 12 10 4 5 11 22 21 17 17 15 14 13 13 13 18 26 27 23 12 6 7 5 5 6 7 6 5 6 8 10 11 11 11 10 9 9 9 8 7 6 4 5 5 8 12 16 19 19 18
6 4 4 6 9 9 11 14 17 21 22 19 17 14 12 12 13 14 17 15 21 24 20 14 5 6 7 6 6 5 2 1 3 5 5 6 6 5 2 1 3 5 7 7 9 11 15 17 17 19 20 21 19 20
4 4 4 6 9 6 7 12 19 13 16 15 13 12 9 8 9 15 16 18 18 19 19 5 3 9 11 10 8 5 3 1 1 4 4 3 1 4 8 10 12 14 16 18 20 21 22 23 23 22 21 18 14 12
5 6 7 9 8 3 10 9 12 16 15 15 13 12 13 12 9 7 8 12 15 15 16 14 14 13 10 7 6 5 3 1 2 2 3 5 8 12 14 17 19 20 21 21 21 22 21 20 20 18 15 12 11 9
5 6 5 1 4 11 11 13 13 14 15 15 12 12 12 12 11 9 12 9 15 19 19 17 13 9 6 4 2 2 2 2 2 3 6 10 14 16 17 18 17 16 17 18 17 16 15 13 12 10 10 8 8 6
14 11 9 12 11 10 18 19 14 11 8 10 9 8 9 9 9 7 9 15 19 15 13 10 7 5 3 1 1 1 1 3 4 6 8 12 13 13 13 14 14 13 14 15 14 11 9 8 9 7 6 5 2 1
8 12 11 7 9 11 13 14 16 14 12 12 12 15 15 15 14 15 18 15 13 10 8 6 4 3 1 1 1 1 2 4 5 6 8 10 9 9 10 11 13 13 12 10 8 8 8 6 4 4 3 0 1 3
10 13 14 13 12 16 17 16 17 19 19 16 16 13 13 14 15 15 14 12 10 8 5 3 2 1 2 1 1 2 3 4 7 7 6 8 8 7 8 9 9 8 7 7 8 7 6 4 3 2 1 2 4 5
9 8 11 15 16 14 15 16 15 16 14 13 10 10 10 8 7 7 10 9 8 7 6 5 5 5 5 5 5 4 3 5 7 8 6 7 8 8 7 6 6 6 6 7 7 5 3 2 1 1 4 5 6 7
16 16 20 23 24 23 22 19 17 14 12 9 11 9 6 5 5 6 7 7 7 6 5 5 5 6 6 6 6 6 5 4 5 6 6 5 6 5 5 5 6 6 6 6 4 1 1 2 4 6 7 7 8 8
23 22 20 20 20 19 20 20 19 17 16 14 12 8 6 4 5 4 4 4 3 3 3 3 3 3 3 3 3 3 3 3 3 2 2 1 2 3 4 5 5 4 2 0 1 3 4 5 6 7 7 8 8 9
22 21 18 18 20 24 25 27 25 22 20 18 17 16 13 11 8 5 3 1 1 1 2 2 2 2 2 2 2 1 1 1 1 1 2 3 3 3 3 2 2 2 2 4 5 6 6 7 8 8 8 8 9 10
21 20 20 20 22 26 25 24 22 21 20 19 18 17 15 12 9 6 5 4 3 3 3 3 3 3 3 3 3 3 3 3 2 2 2 2 2 2 3 4 5 6 6 6 7 7 7 8 8 8 9 9 9 10
19 19 19 21 26 25 23 21 20 19 18 18 18 16 15 13 10 8 6 6 5 5 5 5 5 5 5 4 4 4 3 3 3 3 3 4 4 5 6 6 7 7 7 7 7 8 8 8 9 9 9 9 10 11
20 17 19 21 22 20 18 19 17 15 15 16 15 14 13 11 9 9 8 6 5 5 5 5 5 5 5 5 5 5 5 5 5 5 6 6 7 7 7 7 7 7 8 8 9 9 9 9 9 9 9 10 11 12
20 19 17 18 17 16 13 12 12 11 11 11 12 11 11 11 10 9 8 7 7 7 7 6 6 6 6 6 5 4 4 5 6 7 7 8 8 8 8 8 8 8 8 8 9 9 9 9 9 9 10 11 12 12
Wind_Direction
284 277 268 261 259 257 259 260 256 250 240 232 233 237 232 225 219 215 224 223 222 230 234 227 244 245 250 248 246 253 255 264 245 228 224 223 234 232 238 212 222 230 212 216 230 239 260 287 299 289 299 287 300 325
277 274 270 265 261 261 259 256 259 251 239 235 237 233 227 216 213 214 217 221 226 238 248 254 251 254 256 260 250 248 247 246 222 207 210 208 206 204 227 239 241 242 233 221 226 247 220 306 300 328 340 329 307 298
279 276 271 266 262 260 259 255 253 242 237 232 228 228 223 214 208 209 218 223 222 227 235 240 246 251 248 247 251 243 243 240 224 209 212 211 211 230 219 233 238 239 244 261 263 266 266 285 272 291 291 321 328 318
285 278 271 265 261 258 255 250 243 237 228 226 223 221 221 211 203 206 207 218 219 229 232 241 247 241 241 247 236 236 241 242 243 229 246 238 225 225 232 242 248 258 263 264 264 270 285 281 279 285 277 306 318 330
294 286 277 268 265 259 254 249 240 231 224 220 215 212 211 208 199 204 207 207 217 213 232 250 250 245 244 233 238 235 228 235 234 238 233 247 251 257 249 242 244 248 253 259 271 291 296 279 268 287 303 308 308 289
307 299 282 270 255 250 250 252 236 227 221 215 209 206 205 198 191 198 210 211 207 214 221 255 266 230 225 227 227 229 227 226 227 234 249 249 244 270 266 259 268 256 267 274 285 277 279 283 285 286 297 305 302 286
319 307 289 272 264 259 249 242 228 209 199 195 198 199 196 188 190 197 205 214 202 211 212 222 265 221 211 210 216 223 223 222 231 237 243 244 245 255 257 254 259 273 286 277 282 285 289 288 292 283 285 299 293 291
8 354 330 301 277 256 240 226 212 206 198 192 181 173 181 181 195 203 209 215 204 193 187 179 205 239 283 214 214 218 220 219 235 240 243 255 244 251 261 268 278 280 291 269 260 277 280 272 274 277 267 286 283 258
18 26 14 16 21 334 233 212 202 189 186 184 182 166 171 181 193 197 184 202 208 215 223 210 191 221 251 213 203 211 212 221 227 240 241 249 254 243 260 272 272 277 289 284 238 245 270 274 278 261 253 268 285 262
44 44 29 39 41 35 7 201 182 177 172 165 164 161 170 182 196 186 187 184 200 212 218 223 228 227 236 204 198 193 211 217 225 244 250 242 249 254 263 266 271 275 277 281 274 267 267 272 269 264 247 250 264 259
57 48 44 56 52 50 58 119 145 152 163 165 155 164 171 180 186 175 151 169 178 194 211 207 206 216 222 204 199 197 209 216 228 239 224 242 254 258 263 264 266 267 273 271 266 262 266 267 259 259 249 238 246 257
64 54 66 68 73 75 91 109 132 144 152 159 158 146 147 163 154 178 147 165 203 204 209 203 203 201 182 196 201 206 219 189 211 208 202 244 251 251 255 262 267 270 272 269 265 266 265 262 255 254 242 236 227 236
77 74 63 85 81 93 99 111 129 135 141 136 139 135 149 132 138 149 167 169 190 193 195 195 199 210 204 188 198 209 222 190 199 184 229 245 263 268 271 272 271 270 270 269 265 264 259 249 239 243 240 237 226 228
83 99 69 96 79 87 113 125 127 126 135 126 81 115 115 130 163 153 170 177 177 189 190 187 194 192 206 208 209 191 191 179 196 217 229 250 258 268 273 278 281 276 277 281 263 253 248 243 233 228 232 229 227 234
90 77 57 123 76 44 75 132 127 121 143 122 108 122 141 143 154 153 165 182 180 166 163 168 180 190 189 187 184 183 178 221 227 223 232 248 260 269 276 279 281 273 265 269 264 260 234 233 234 235 236 232 227 228
97 89 63 53 60 62 51 82 114 158 167 89 98 126 133 136 145 156 166 178 175 165 167 173 162 173 156 176 182 184 196 214 229 253 273 286 287 283 281 278 274 265 261 254 253 247 249 218 238 245 243 226 209 197
105 77 57 48 48 48 74 70 79 104 99 106 120 128 129 137 148 149 164 172 161 174 176 155 165 175 163 194 192 201 216 245 273 291 294 291 291 290 284 272 258 252 248 247 247 243 220 214 249 245 221 189 173 163
106 81 59 43 34 34 24 138 124 101 112 115 123 129 141 144 148 161 165 170 178 184 188 192 188 188 187 185 201 215 227 264 288 295 298 302 301 289 278 271 261 249 239 228 220 206 192 185 188 173 161 153 151 151
162 128 47 31 29 41 71 83 115 117 112 112 110 110 121 146 164 169 174 183 190 200 207 215 224 220 209 179 157 166 197 283 337 333 331 320 301 277 265 151 131 133 136 141 137 138 137 132 138 138 139 135 143 139
191 233 284 327 349 40 93 103 114 107 114 106 103 101 105 104 143 167 177 189 197 207 212 227 172 143 143 145 148 150 162 152 26 23 17 6 20 130 120 116 115 116 122 123 126 126 129 135 133 133 134 139 148 156
260 269 286 311 328 126 123 128 111 121 114 111 110 117 100 91 90 128 175 188 196 195 149 143 139 140 143 153 159 176 201 267 333 28 71 97 121 114 118 119 119 121 124 126 129 134 139 143 143 146 149 159 165 156
261 262 275 261 130 107 106 118 131 126 122 120 119 114 116 114 113 109 101 147 129 128 134 136 138 132 128 122 158 203 234 243 196 132 126 126 122 121 123 124 125 131 135 138 143 148 153 159 161 168 170 149 114 88
101 98 120 108 81 94 108 117 123 122 121 120 118 101 95 95 92 96 98 99 113 123 129 136 139 130 124 110 109 195 202 183 148 138 142 140 138 140 142 144 144 153 161 162 161 166 176 183 179 156 122 92 94 209
112 109 74 64 80 99 109 113 110 108 121 119 109 100 93 94 96 97 101 107 111 115 122 132 140 144 132 75 45 91 162 170 150 147 153 151 154 164 165 169 170 175 179 189 196 205 209 196 162 111 102 130 279 282
90 77 90 83 88 101 101 102 106 111 108 104 100 95 91 91 91 90 91 93 91 94 98 106 114 91 66 63 100 136 161 168 156 148 166 169 162 173 182 183 188 197 215 228 229 226 213 183 161 174 220 279 276 271
81 70 101 105 106 102 110 109 109 106 105 94 95 104 98 84 75 88 93 93 92 88 84 83 88 91 84 85 87 92 118 148 147 127 149 165 167 171 178 192 209 229 241 247 243 233 211 183 133 316 290 286 284 284
97 98 106 111 110 109 103 99 97 91 85 81 77 71 62 68 72 108 102 100 99 95 94 91 87 92 93 93 93 95 99 107 123 133 141 154 164 176 191 205 220 230 232 229 224 220 358 326 291 282 282 283 283 282
117 114 114 112 111 111 107 100 87 74 71 70 72 56 54 65 106 102 99 95 92 88 91 95 98 99 98 95 95 96 99 98 105 116 143 182 218 231 231 228 224 227 218 359 316 287 281 282 284 285 285 283 279 277
123 123 122 123 117 108 98 94 92 86 80 74 72 73 78 76 78 86 83 69 349 340 342 343 346 353 2 16 21 24 21 8 331 263 246 250 246 247 258 254 260 274 279 279 280 283 286 288 288 287 285 281 279 280
127 128 128 124 112 103 98 94 88 78 69 62 56 54 54 53 49 45 42 31 13 355 342 334 328 323 320 320 326 328 329 326 318 302 304 288 289 274 274 270 265 264 266 271 275 280 284 286 286 284 283 282 285 290
132 135 131 120 110 103 96 88 79 69 60 52 49 46 40 36 34 30 23 13 1 346 331 319 313 313 314 317 319 319 316 311 305 298 291 286 282 282 282 280 278 277 279 281 283 286 289 290 288 286 286 287 292 297
131 134 127 115 110 105 96 86 77 66 55 48 41 35 30 24 21 11 359 350 338 323 316 308 302 300 299 298 296 294 296 298 298 299 298 295 292 290 288 286 285 285 286 288 291 293 294 293 291 290 291 294 298 298
133 131 127 117 113 111 104 91 77 62 48 37 30 23 18 12 4 355 348 341 329 320 313 309 308 307 299 290 282 281 293 305 309 308 307 305 304 303 301 299 296 293 291 290 290 291 292 291 290 289 293 297 298 299